OBJECT X, 57187

Orbit data source: Space-Track

You're viewing an Uncataloged Satellite

Recently launched and/or uncataloged satellites may have evolving metadata. Metadata may include but not limited to: Owner, Maufacturer, Bus, Motor, and Mission.

OBJECT X, 57187 is a satellite in SSO that was launched on Tue, 27 Jun 2023 UTC via a SOYUZ-2-1B launch vehicle from the Vostochny Cosmodrome (VOSTO). Unknown objects in Earth's orbit typically refer to objects detected orbiting the Earth but have not yet been identified or cataloged. These objects could be anything from previously untracked satellites, spent rocket stages, debris from satellite collisions, or even natural meteoroids temporarily captured by Earth's gravity.

Loading next visibility...
Identifier
57187, 2023-091X
Orbit
SSO
Country
Flag of TBDTBD
Related business
Manufacturer
Sputniks
Mission
Operational Commercial Imaging
Bus & Motor
CUBESAT 3U, Unknown motor
Mass
3.4 kg wet, 3.4 kg dry
Launch date (UTC)
2023-06-27 (3 years ago)
Launch vehicle
SOYUZ-2-1B
Launch site
Vostochny Cosmodrome (VOSTO)
Object type
Unknown
Shape & HBR
Box, 0.1 m
Radar Cross Section
0.035 m², Small (<0.1 m²)

Expand to show TLE details & history
Last TLE update: 10 hours ago

TLE from 10 hours ago
0 OBJECT X
1 57187U 23091X   26104.25924018  .00004944  00000-0  19761-3 0  9995
2 57187  97.5146 167.7598 0008309 324.2575  35.8106 15.25560841154564
Epoch: 2026-04-14T06:13Z
TLE epoch observation values (Epoch: 2026-04-14T06:13:18.351Z)
Latitude
Longitude
-128.00472°
Altitude
487.57 km
Speed
7.624 km/s
True Right ascension
11h 11m 02s
True Declination
0° 00' 00"
Sunlit
Object was in full shadow at epoch
Visualization orbit readout
Latitude
Unknown
Longitude
Unknown
Altitude
Unknown
Speed
Unknown
Apparent Right ascension
Unknown
Apparent Declination
Unknown
Sunlit
N/A
Visualization observer readout
Local Sidereal Time
22:32:48
Azimuth
Unknown
Elevation
Unknown
Doppler factor
Unknown
Orbital elements
Apogee altitude
491.768 km
Perigee altitude
480.361 km
Semi-major axis
6,864.202 km
Eccentricity
0.00083
Inclination
97.5146°
RAAN
167.7598°
Arg. of periapsis
324.2575°
True anomaly
35.86636°
Mean anomaly
35.8106°
Eccentric anomaly
35.83847°
Mean motion
3.81644 °/min
Orbital period
94.33 mins
BSTAR
0.00019761
Loading maneuver chart data...
Computing Atmospheric mass density...
Loading historical data...
Loading historical data...
Loading historical data...
Loading historical data...
Loading historical data...
Loading historical data...
Loading historical data...

Documentation

Showing up to 5 results
|